Flag for Philippines Weather past 2 weeks in Isabela City, Philippines

Now
93 °F

Passing clouds.


Feels Like: 113 °F
Forecast: 80 / 89 °F
Wind: 5 mph from Northeast

Location: Zamboanga

Current Time: Mar 31, 2015 at 4:52:46 PM

Latest Report: Mar 31, 2015 at 4:00 PM


Visibility: N/A

Pressure: 29.83 "Hg

Humidity: 67%

Dew point: 81 °F

Location of Isabela CityLocation

Historic Weather in Isabela City — Graph

°F

Isabela City temperature yesterday

Maximum temperature yesterday: 97 °F (at 12:00 PM)
Minimum temperature yesterday: 79 °F (at 7:00 AM)
Average temperature yesterday: 90 °F

Past Weeks' High & Low Weather Summary

 TemperatureHumidityPressure
High97 °F (Mar 30, 12:00 PM)94% (Mar 17, 5:00 AM)30.01 "Hg (Mar 17, 5:00 AM)
Low66 °F (Mar 18, 5:00 AM)44% (Mar 17, 3:00 PM)29.83 "Hg (Mar 18, 3:00 PM)
Average85 °F70%29.92 "Hg
* Reported Mar 16 4:00 PM — Mar 31 4:00 PM, Isabela City, Weather by CustomWeather, © 2015

Note: Actual official high and low records may vary slightly from our data, if they occured in-between our weather recording intervals... More about our weather records

Advertising

Isabela City weather history for previous 24 hours

 ConditionsComfort  
Time TempWeatherWind HumidityBarometerVisibility
4:00 PM
Tue, Mar 31
93 °FPassing clouds.5 mph67%29.83 "HgN/A
3:00 PM93 °FPassing clouds.5 mph59%29.83 "HgN/A
2:00 PM97 °FPassing clouds.5 mph53%29.83 "HgN/A
1:00 PM97 °FPassing clouds.5 mph50%29.83 "HgN/A
12:00 PM95 °FPassing clouds.2 mph60%29.89 "HgN/A
11:00 AM95 °FPassing clouds.2 mph63%29.92 "HgN/A
10:00 AM93 °FScattered clouds.2 mph63%29.92 "HgN/A
9:00 AM90 °FScattered clouds.2 mph67%29.92 "HgN/A
8:00 AM84 °FPassing clouds.2 mph74%29.92 "HgN/A
7:00 AM81 °FPassing clouds.No wind84%29.92 "HgN/A
6:00 AM79 °FScattered clouds.2 mph89%29.89 "HgN/A
5:00 AM81 °FPassing clouds.No wind84%29.89 "HgN/A
2:00 AM81 °FPassing clouds.No wind84%29.89 "HgN/A
11:00 PM
Mon, Mar 30
81 °FPassing clouds.No wind84%29.92 "HgN/A
8:00 PM88 °FPassing clouds.5 mph70%29.89 "HgN/A
6:00 PM88 °FScattered clouds.5 mph70%29.86 "HgN/A
5:00 PM90 °FPassing clouds.5 mph67%29.86 "HgN/A
4:00 PM95 °FPassing clouds.7 mph60%29.86 "HgN/A
Weather by CustomWeather, © 2015

See weather overviewHow to use our weather pages